Location: Jaite
(41.2884°N, 81.5737°W)
Time: 09:42:56
(UTC+00:00)

Cosmos 2369 - Pass Details

Date: 18 January 2020
Orbit: 839 x 856 km, 71.0° (Epoch: 18 February)

Event Time Altitude Azimuth Distance (km) Brightness Sun altitude
Exits shadow 11:37:53 - 234° (SW) 3,217 6.4 -13.2°
Reaches altitude 10° 11:40:04 10° 243° (WSW) 2,481 5.7 -12.8°
Maximum altitude 11:45:02 30° 304° (NW) 1,484 4.5 -11.9°
Drops below altitude 10° 11:50:03 10° 5° (N) 2,497 6.0 -11.0°
Sets 11:52:50 0° 16° (NNE) 3,437 6.9 -10.5°
